EHI
3 3 3 3 3 3 3 3 3 3 3 3 3 3 3 3 3 3 3 3 3 3 3 3 3 3 3 3 3 3 3 3 3 3 3 3 3 3 3 3 3 2 1
3 3 3 3 3 3 3 3 3 3 3 3 3 3 3 3 3 3 3 3 3 3 3 3 3 3 3 3 3 3 3 3 3 3 3 3 3 3 3 3 3 2 1
3 3 3 3 3 3 3 3 3 3 3 3 3 3 3 3 3 3 3 3 3 3 3 3 3 3 3 3 3 3 3 4 3 3 3 3 3 3 3 3 3 2 1
3 3 3 3 3 3 3 3 3 3 3 3 3 3 3 3 3 3 3 3 3 3 3 3 3 3 3 3 3 3 4 4 4 3 3 3 3 3 3 3 3 2 1
4 3 3 3 3 3 3 3 3 3 3 3 3 3 3 3 3 3 3 3 3 3 3 3 3 3 3 3 3 3 3 4 3 3 3 4 3 3 3 3 3 2 1
4 4 3 3 3 3 3 3 4 4 3 3 3 3 3 2 2 3 3 3 3 3 3 3 3 3 3 3 3 3 3 3 3 3 4 5 4 3 3 3 3 3 2
4 4 4 3 3 3 3 4 4 4 4 3 3 3 1 1 1 1 3 3 3 3 3 3 3 3 3 3 3 3 3 3 3 3 4 5 5 4 3 3 3 3 3
3 4 4 4 3 3 3 3 4 4 3 3 3 3 1 0 0 1 2 3 3 3 3 3 3 3 3 3 3 3 3 3 3 3 3 4 4 4 4 3 3 3 3
3 3 4 3 3 3 3 3 3 3 3 3 3 3 2 1 0 0 2 3 3 3 3 3 3 2 1 2 2 2 2 2 2 2 2 2 3 3 3 3 3 3 3
2 2 2 3 3 3 3 3 3 3 3 3 3 3 2 2 1 1 2 2 2 2 2 2 2 1 1 1 1 1 1 1 1 1 1 1 2 3 3 3 3 3 3
1 1 1 1 2 2 2 2 2 3 3 3 3 3 2 2 2 3 2 1 1 1 1 1 1 1 0 0 1 1 0 0 0 0 1 2 3 3 3 3 3 3 3
0 0 0 0 1 1 1 1 1 1 2 2 2 2 2 2 3 3 3 1 1 1 2 1 0 0 0 1 2 1 0 0 0 0 1 2 3 3 3 3 3 3 3
0 0 0 0 0 0 0 0 0 0 1 1 1 1 1 1 3 3 3 3 2 3 3 2 0 0 0 1 1 1 0 0 0 0 0 1 2 3 3 3 3 3 3
0 0 0 0 0 0 0 0 0 0 0 0 0 0 0 1 2 3 3 3 3 2 2 1 0 0 0 0 0 0 0 0 0 0 0 0 1 2 2 2 2 2 1
0 0 0 0 0 0 0 0 0 0 0 0 0 0 0 0 1 2 3 3 2 1 1 0 0 0 0 0 0 0 0 0 0 0 0 0 0 1 1 1 1 1 0
0 0 0 0 0 0 0 0 0 0 0 0 0 0 0 0 0 1 1 2 2 1 1 1 0 0 1 0 0 1 1 1 0 0 0 0 0 0 0 0 0 0 0
0 0 0 0 0 0 0 0 0 0 0 0 0 0 0 0 0 0 0 1 1 2 2 2 1 1 1 1 1 2 2 2 1 0 0 0 0 0 0 0 0 0 0
0 0 0 0 0 0 0 0 0 0 0 0 0 0 0 0 0 0 0 0 1 2 3 3 3 2 2 2 2 3 3 3 2 0 0 0 0 0 0 0 0 0 0
0 0 0 0 0 0 0 0 0 0 0 0 0 0 0 0 0 0 0 0 0 1 3 3 3 3 3 3 2 2 2 2 1 0 0 0 0 0 0 0 0 0 0
0 0 0 0 0 0 0 0 0 0 0 0 0 0 0 0 0 0 0 0 0 1 2 3 3 3 3 3 2 1 1 1 0 0 0 0 0 0 0 0 0 0 0
0 0 0 0 0 0 0 0 0 0 0 0 0 0 0 0 0 0 0 0 0 0 1 2 2 2 2 2 1 0 0 0 0 0 0 0 0 0 0 0 0 0 0
0 0 0 0 0 0 0 0 0 0 0 0 0 0 0 0 0 0 0 0 0 0 0 1 1 1 1 1 1 0 0 0 0 0 0 0 0 0 0 0 0 0 0
0 0 0 0 0 0 0 0 0 0 0 0 0 0 0 0 0 0 0 0 0 0 0 0 0 0 0 0 0 0 0 0 0 0 0 0 1 1 0 0 0 0 0
0 0 0 0 0 0 0 0 0 0 0 0 0 0 0 0 0 0 0 0 0 0 0 0 0 0 0 0 0 0 0 0 0 1 1 1 2 2 1 1 0 0 0
0 0 0 0 0 0 0 0 0 0 0 0 0 0 0 0 0 0 0 0 0 0 0 0 0 0 0 0 0 0 0 0 1 2 2 2 2 3 2 1 0 0 0
0 0 0 0 0 0 0 0 0 0 0 0 0 0 0 0 0 0 0 0 0 0 0 0 0 0 0 0 0 0 0 0 1 2 3 3 3 3 3 1 0 0 0
Wind_Speed
5 4 4 4 5 5 5 5 5 6 7 7 7 8 9 9 9 8 6 13 15 14 15 13 11 10 10 10 10 10 11 12 11 11 13 14 15 16 16 18 19 18 17
6 5 5 5 6 6 6 5 6 5 5 6 8 8 9 9 9 9 8 9 14 14 14 14 12 11 11 11 10 10 11 12 11 11 11 12 14 14 16 18 19 20 18
7 7 6 6 6 5 6 5 6 5 5 6 8 8 8 8 9 9 9 7 8 11 13 13 12 12 11 12 12 11 11 12 12 12 12 12 12 13 14 17 20 21 20
8 6 6 7 6 4 4 5 5 4 5 6 6 7 6 7 9 9 8 7 7 7 9 12 12 12 12 12 13 12 12 12 12 12 12 12 13 13 14 16 19 21 21
8 6 6 6 5 4 4 5 4 4 5 6 6 6 6 7 8 8 8 9 8 7 7 8 11 11 12 12 13 13 13 12 12 13 13 13 13 13 14 15 18 21 22
5 5 4 5 4 3 4 4 6 5 5 5 7 7 6 7 7 8 9 8 7 8 8 7 6 7 11 11 12 13 13 13 13 13 13 14 14 13 13 14 16 22 24
2 2 2 3 2 3 5 5 4 6 5 4 4 5 6 7 8 7 7 7 8 8 7 7 5 5 4 9 10 11 13 14 13 13 13 13 14 13 13 13 15 21 25
2 1 1 1 2 3 4 5 5 4 4 4 4 4 4 4 4 5 4 5 6 5 6 6 6 5 5 4 5 10 11 13 13 13 13 13 13 13 13 14 14 20 25
3 3 2 2 2 2 4 5 5 7 7 4 5 5 4 5 3 3 3 3 3 3 4 4 5 5 5 4 5 7 10 11 12 13 12 12 12 11 12 14 15 20 25
2 2 3 3 3 3 4 5 5 6 8 7 5 6 7 5 4 4 3 2 3 3 3 3 4 4 4 4 5 8 10 10 10 11 12 11 11 11 12 14 16 20 26
1 2 3 3 3 3 4 6 6 6 6 7 6 5 6 6 7 6 5 3 2 2 3 3 3 3 4 3 3 6 8 8 7 8 9 10 12 12 12 14 17 21 26
1 2 3 3 3 3 4 5 5 6 5 7 6 5 5 4 5 6 7 5 4 3 3 3 3 3 3 2 4 5 5 4 4 6 8 10 12 12 13 15 17 20 26
0 2 2 3 3 3 4 4 5 5 5 5 5 4 4 5 3 3 4 4 4 3 2 2 2 2 2 1 2 3 2 2 3 5 7 9 10 10 11 13 15 19 25
0 1 2 2 3 4 4 4 4 5 5 5 5 5 3 3 2 2 2 2 3 2 2 3 2 2 1 1 1 2 1 2 3 4 5 6 6 6 8 11 14 18 25
0 1 2 2 3 3 4 4 3 4 4 4 4 5 3 3 3 2 2 1 1 2 2 2 2 2 1 1 2 1 1 2 2 2 3 3 2 1 5 10 14 19 23
1 2 2 3 3 4 4 4 4 4 4 4 3 4 4 3 2 2 2 2 1 2 2 2 3 3 3 3 2 1 1 1 0 1 2 3 4 5 9 13 17 20 22
2 3 3 3 4 5 5 4 5 5 4 4 4 4 5 4 3 3 3 3 2 2 4 4 3 3 3 3 1 1 1 1 1 2 3 5 6 9 11 14 17 19 21
3 4 4 5 5 5 5 5 5 6 5 5 5 5 5 4 5 3 3 3 3 3 3 5 3 3 3 2 2 3 2 2 1 3 5 6 8 10 12 14 16 17 18
5 5 5 5 5 6 6 6 6 6 7 6 6 6 6 6 6 5 5 4 3 3 3 3 4 2 2 0 1 2 2 1 2 3 5 6 7 9 11 13 14 15 15
5 5 5 5 5 5 6 6 6 7 7 7 7 6 6 6 6 6 5 6 5 5 4 3 3 2 2 1 1 1 2 2 2 3 3 4 6 8 9 11 12 13 14
5 4 5 5 6 5 5 6 6 7 7 7 7 7 8 10 10 7 5 6 6 5 5 5 4 3 3 3 1 0 2 2 2 2 3 3 4 5 6 8 10 12 13
4 5 5 5 6 5 8 10 7 7 7 8 7 7 7 10 11 11 11 10 10 8 7 6 6 6 7 5 3 1 1 2 2 2 3 3 4 6 6 7 10 12 13
4 4 4 5 5 6 9 11 11 8 8 8 8 7 8 9 10 8 8 10 11 11 9 5 6 6 6 7 6 4 2 1 0 1 2 2 3 4 5 6 11 14 15
4 3 4 4 4 5 8 9 9 8 8 7 7 7 7 8 10 8 7 9 9 9 9 6 5 5 5 6 5 4 3 2 2 2 2 1 1 2 2 4 8 12 13
4 3 3 4 5 4 5 7 6 5 6 7 6 7 8 8 11 11 9 8 9 8 8 10 9 9 10 12 9 5 6 4 3 3 3 1 1 1 1 2 3 7 9
5 5 5 5 5 4 4 5 6 4 5 4 5 6 9 10 10 10 7 6 7 6 8 10 10 11 10 10 12 7 5 4 2 2 3 2 1 1 1 1 1 2 3
Wind_Direction
237 240 247 249 253 252 252 253 251 255 260 265 263 262 264 263 262 259 261 268 270 268 270 271 264 255 249 246 243 242 243 245 242 237 236 238 236 231 222 215 208 202 201
231 235 245 248 251 246 244 243 245 252 261 266 269 265 264 265 264 261 258 265 266 265 266 266 260 252 247 246 244 242 241 243 244 241 239 240 239 235 226 217 209 203 200
228 229 238 246 248 241 239 242 249 252 260 262 265 266 265 263 263 262 260 256 259 260 261 259 253 247 244 244 244 243 240 238 239 240 240 240 240 237 231 220 209 202 198
227 226 232 244 244 235 230 234 238 244 252 257 264 269 268 268 268 265 261 255 249 251 253 252 250 246 244 244 244 245 242 239 238 239 240 241 241 237 233 225 212 201 195
227 221 232 241 237 231 231 238 235 229 247 253 259 266 265 265 267 269 265 260 249 243 241 244 244 246 247 246 245 245 244 242 242 242 242 242 241 237 233 228 215 201 193
221 213 226 239 233 233 240 236 244 240 242 252 265 269 265 265 265 263 264 263 254 245 239 234 231 238 243 246 246 247 246 245 244 245 245 244 242 238 232 227 216 200 192
200 200 229 248 240 241 250 251 253 258 254 239 256 272 267 259 257 258 257 258 258 250 237 230 226 224 236 242 245 249 253 252 249 247 248 247 244 239 231 225 216 199 192
41 48 328 291 282 275 275 266 255 261 258 219 231 265 287 295 269 254 253 253 258 254 245 239 229 226 232 234 241 247 254 257 257 255 252 250 248 240 230 222 213 199 191
24 16 358 340 316 293 284 280 264 260 267 252 220 232 245 250 289 291 267 260 264 261 258 251 244 236 233 231 239 246 248 249 256 262 262 259 253 241 232 222 212 198 191
23 19 10 1 339 321 303 294 280 264 265 268 246 229 232 227 234 279 286 273 273 263 266 266 267 266 250 242 240 244 246 249 253 263 268 269 262 247 236 224 215 200 190
41 24 19 8 357 339 322 311 303 285 268 266 259 245 240 237 230 237 266 275 282 268 266 268 269 274 270 255 245 249 251 253 258 267 274 276 271 258 241 227 217 203 191
37 18 18 12 3 351 340 331 320 310 296 280 271 256 241 234 224 223 238 250 261 271 272 269 266 273 276 267 263 263 258 263 271 284 285 280 273 261 243 226 215 202 190
99 4 7 357 352 345 342 345 347 345 335 319 301 280 260 249 239 223 230 242 247 261 272 271 260 275 279 269 279 283 272 282 298 301 295 287 277 260 235 219 209 196 184
131 357 350 346 347 349 348 347 347 349 350 353 352 342 320 307 280 247 233 228 244 257 257 269 285 268 278 271 281 291 294 299 309 311 308 301 284 258 222 202 190 177 169
83 360 347 346 342 342 340 341 338 338 343 353 358 4 7 358 358 343 329 297 262 275 274 274 275 278 272 257 249 245 277 298 309 336 336 336 330 210 173 164 159 156 158
39 14 5 354 346 344 340 333 323 324 333 336 343 2 7 355 357 359 345 318 269 245 264 263 254 266 262 250 211 194 244 243 194 67 51 58 80 109 126 133 139 143 147
42 31 15 11 6 359 351 342 332 331 338 343 349 5 14 12 15 14 4 343 312 276 266 272 249 256 247 245 196 160 182 191 165 125 103 99 103 111 119 126 133 140 147
55 45 39 33 22 11 4 1 356 6 11 9 13 23 20 22 23 16 12 357 334 305 279 286 287 276 260 246 180 166 172 178 154 138 126 116 115 118 122 127 134 141 148
61 50 46 38 24 16 17 22 31 37 38 35 32 30 21 22 19 8 7 2 342 327 298 294 304 305 297 360 140 155 158 141 158 149 139 131 130 130 133 137 143 150 155
71 58 47 37 26 26 32 40 48 48 45 39 33 29 24 24 18 8 11 6 360 2 359 346 332 330 325 332 153 164 166 158 169 164 151 148 148 145 149 153 157 162 167
78 67 54 41 31 32 36 52 55 53 44 39 32 28 30 33 30 24 22 14 15 17 15 15 10 5 5 356 334 210 191 161 164 157 160 168 165 170 175 178 179 180 183
81 69 57 50 42 38 55 67 72 63 54 46 34 21 27 28 19 24 30 36 35 30 24 24 20 16 6 352 338 329 167 169 187 167 167 175 180 193 196 199 198 196 198
95 78 61 57 53 50 71 76 75 75 64 51 40 31 30 20 18 17 23 34 36 34 33 29 30 16 358 349 348 357 3 6 18 109 140 163 183 208 207 212 208 209 211
109 92 72 64 68 64 85 88 82 74 66 52 42 33 30 21 15 14 32 37 33 28 25 31 27 5 353 346 351 347 343 8 38 36 45 110 155 217 210 213 214 215 220
109 95 79 74 77 59 74 89 82 75 65 48 35 32 29 24 10 25 38 35 30 20 20 34 36 31 27 23 16 20 21 25 24 14 14 31 37 305 263 242 216 213 218
110 100 81 67 72 59 58 91 88 80 67 45 28 25 25 21 17 29 39 36 30 6 5 18 21 20 22 24 26 29 23 28 17 13 3 6 7 360 328 309 260 207 210